Temperature
-1 -1 -1 -1 -2 -2 -2 -2 -3 -2 -2 -2 -2 -2 -2 -2 -3 -3 -3 -3 -3 -3 -3 -2 -2 -2 -1 -1 -1 -1 -1 -0 -0 0 0 1 1 1 1 1 1 1 1 2
-2 -1 -1 -2 -2 -2 -2 -2 -2 -2 -3 -2 -2 -3 -3 -3 -3 -3 -3 -4 -4 -4 -3 -3 -3 -2 -2 -2 -2 -2 -1 -1 -1 -1 -0 -0 0 0 0 0 1 1 1 1
-2 -1 -1 -3 -4 -3 -3 -3 -3 -4 -3 -3 -3 -3 -3 -3 -4 -4 -4 -4 -4 -4 -4 -4 -4 -3 -3 -3 -2 -2 -2 -2 -2 -1 -1 -1 -1 -0 -0 -0 -0 0 0 0
-2 -2 -3 -4 -3 -3 -3 -4 -4 -4 -3 -3 -3 -4 -4 -4 -4 -5 -5 -5 -5 -5 -5 -4 -4 -4 -3 -3 -3 -3 -3 -2 -2 -2 -2 -2 -1 -1 -1 -1 -1 -1 -0 -0
-3 -3 -3 -3 -4 -4 -5 -5 -4 -4 -4 -4 -4 -4 -4 -4 -5 -5 -5 -5 -5 -5 -5 -5 -4 -4 -4 -3 -3 -3 -3 -3 -3 -3 -2 -2 -2 -2 -2 -1 -1 -1 -1 -1
-3 -3 -4 -4 -4 -4 -4 -5 -5 -5 -5 -5 -5 -5 -5 -5 -5 -5 -5 -5 -5 -5 -5 -5 -5 -5 -4 -4 -4 -4 -4 -4 -4 -3 -3 -3 -3 -3 -2 -2 -2 -2 -1 -1
-4 -4 -4 -5 -5 -4 -5 -6 -5 -5 -5 -5 -6 -6 -6 -6 -6 -6 -6 -6 -6 -6 -5 -5 -5 -5 -5 -5 -5 -5 -4 -4 -4 -4 -4 -4 -3 -3 -3 -3 -2 -2 -2 -2
-4 -5 -5 -5 -5 -6 -6 -5 -5 -6 -6 -6 -6 -6 -6 -6 -6 -6 -6 -6 -6 -6 -6 -6 -6 -6 -6 -6 -5 -5 -5 -5 -5 -4 -4 -4 -4 -4 -3 -3 -3 -3 -3 -3
-6 -6 -5 -5 -6 -5 -6 -6 -6 -6 -6 -6 -7 -7 -7 -7 -7 -7 -7 -6 -6 -6 -6 -6 -6 -6 -6 -6 -6 -6 -5 -5 -5 -5 -5 -5 -5 -4 -4 -4 -4 -4 -3 -3
-6 -6 -5 -5 -6 -6 -6 -6 -7 -7 -7 -7 -7 -7 -7 -7 -7 -7 -7 -7 -7 -7 -7 -7 -7 -7 -7 -7 -6 -6 -6 -6 -6 -5 -5 -5 -5 -5 -5 -5 -4 -4 -4 -4
-7 -7 -6 -6 -6 -6 -7 -7 -7 -7 -7 -7 -7 -8 -8 -8 -8 -8 -8 -8 -7 -7 -7 -7 -7 -7 -7 -7 -7 -6 -6 -6 -6 -6 -6 -6 -6 -6 -5 -5 -5 -5 -5 -4
-7 -6 -7 -6 -6 -7 -7 -7 -7 -8 -8 -8 -8 -8 -8 -8 -8 -8 -8 -8 -8 -8 -8 -7 -7 -7 -7 -7 -7 -7 -7 -6 -6 -6 -6 -6 -6 -6 -6 -6 -6 -5 -5 -5
-6 -6 -7 -7 -7 -7 -7 -7 -8 -8 -8 -8 -8 -8 -8 -8 -8 -8 -8 -8 -8 -8 -8 -8 -8 -8 -7 -7 -7 -7 -7 -7 -7 -7 -7 -7 -7 -6 -6 -6 -6 -6 -6 -5
-7 -7 -7 -7 -7 -8 -8 -8 -8 -8 -8 -8 -8 -8 -8 -8 -9 -9 -9 -9 -9 -9 -8 -8 -8 -8 -8 -8 -8 -8 -7 -7 -7 -7 -7 -7 -7 -7 -7 -7 -7 -6 -6 -6
-7 -7 -7 -8 -8 -8 -8 -8 -8 -8 -8 -9 -9 -9 -9 -9 -9 -9 -9 -9 -9 -9 -8 -8 -8 -8 -8 -8 -8 -8 -8 -8 -8 -8 -8 -8 -8 -8 -8 -8 -7 -7 -7 -6
-7 -8 -8 -8 -8 -8 -8 -9 -9 -9 -9 -9 -9 -9 -9 -9 -9 -9 -9 -9 -9 -9 -9 -9 -9 -9 -9 -8 -8 -8 -8 -8 -8 -8 -8 -8 -8 -8 -8 -8 -8 -8 -7 -7
-8 -8 -8 -8 -8 -8 -9 -9 -9 -9 -9 -9 -9 -9 -9 -9 -9 -9 -9 -9 -9 -9 -9 -9 -9 -9 -9 -9 -8 -8 -8 -8 -8 -8 -8 -8 -8 -8 -8 -8 -8 -8 -8 -8
-8 -8 -8 -8 -9 -9 -9 -9 -9 -9 -9 -9 -9 -9 -10 -10 -10 -10 -10 -9 -9 -9 -9 -9 -9 -9 -9 -9 -9 -9 -9 -9 -9 -9 -9 -9 -9 -8 -8 -8 -8 -8 -8 -8
-8 -8 -8 -8 -9 -9 -9 -9 -9 -9 -10 -10 -10 -10 -10 -10 -10 -10 -10 -10 -10 -9 -9 -10 -10 -9 -9 -9 -9 -9 -9 -9 -9 -9 -9 -9 -9 -9 -9 -9 -9 -9 -8 -8
-8 -8 -9 -9 -9 -9 -9 -9 -10 -10 -10 -10 -10 -10 -10 -10 -10 -10 -10 -10 -10 -10 -10 -10 -10 -10 -9 -9 -10 -10 -9 -9 -9 -9 -9 -9 -9 -9 -9 -9 -9 -9 -9 -9
-8 -9 -9 -9 -9 -9 -10 -10 -10 -10 -10 -10 -10 -10 -10 -10 -10 -10 -10 -10 -10 -10 -10 -10 -10 -10 -10 -10 -10 -10 -10 -10 -10 -10 -10 -10 -10 -10 -10 -9 -9 -9 -9 -9
-9 -9 -9 -9 -10 -10 -10 -10 -10 -10 -10 -10 -10 -10 -10 -10 -10 -10 -11 -11 -11 -11 -11 -10 -10 -10 -10 -10 -10 -10 -10 -10 -10 -10 -10 -10 -10 -10 -10 -10 -10 -10 -9 -9
-9 -9 -9 -10 -10 -10 -10 -10 -10 -10 -10 -11 -11 -11 -11 -11 -11 -11 -11 -11 -11 -11 -11 -11 -11 -11 -11 -10 -10 -10 -10 -10 -10 -10 -10 -10 -10 -10 -10 -10 -10 -10 -10 -10
-9 -9 -10 -10 -10 -10 -10 -10 -11 -11 -11 -11 -11 -11 -11 -11 -11 -11 -11 -11 -11 -11 -11 -11 -11 -11 -11 -11 -11 -11 -11 -11 -11 -11 -11 -11 -11 -11 -10 -10 -10 -10 -10 -10
-10 -10 -10 -10 -10 -10 -11 -11 -11 -11 -11 -11 -11 -11 -11 -11 -11 -11 -11 -11 -11 -11 -11 -11 -11 -11 -11 -11 -11 -11 -11 -11 -11 -11 -11 -11 -11 -11 -11 -11 -11 -10 -10 -10
-10 -10 -10 -11 -11 -11 -11 -11 -11 -11 -11 -11 -11 -12 -12 -12 -12 -12 -12 -12 -12 -12 -12 -12 -12 -12 -12 -12 -12 -11 -11 -11 -11 -11 -11 -11 -11 -11 -11 -11 -11 -11 -11 -10
-10 -10 -10 -11 -11 -11 -11 -11 -12 -12 -12 -12 -12 -12 -12 -12 -12 -12 -12 -12 -12 -12 -12 -12 -12 -12 -12 -12 -12 -12 -12 -12 -12 -12 -12 -12 -12 -11 -11 -11 -11 -11 -11 -11
Wind_Speed
5 4 2 3 4 3 1 1 1 3 3 4 5 5 6 6 6 6 6 7 7 6 5 5 5 5 4 4 4 3 2 2 2 2 2 2 2 2 2 2 3 2 1 1
5 4 1 3 5 3 3 3 3 3 4 4 5 5 6 6 7 7 7 7 7 7 6 6 5 5 4 4 4 3 2 2 2 2 2 2 2 2 2 2 3 2 2 2
3 3 3 3 3 2 0 1 2 3 4 5 5 6 6 6 7 7 7 7 7 6 6 6 5 5 5 4 4 3 2 2 2 2 2 2 3 3 3 3 3 2 1 2
4 3 2 2 1 1 0 2 2 2 3 4 4 5 4 5 6 6 7 7 6 6 6 6 5 5 5 4 3 3 3 3 3 3 3 3 3 3 3 3 2 2 2 2
2 2 3 0 2 2 1 3 3 3 4 5 5 4 2 5 6 6 6 6 5 5 5 5 5 4 4 4 3 3 3 4 4 3 3 3 3 4 3 3 2 2 2 2
2 2 2 1 2 2 1 2 4 4 5 6 6 4 4 7 7 6 6 5 5 5 5 5 5 4 4 4 3 3 4 4 4 3 3 3 4 4 3 2 2 2 2 2
3 2 2 2 3 1 0 3 5 4 4 4 4 4 5 7 6 6 6 6 6 5 5 4 5 4 4 4 4 4 4 4 4 4 3 3 3 3 2 2 2 2 2 2
2 2 3 2 2 1 3 3 4 4 4 4 5 5 6 6 6 6 6 6 6 5 5 4 4 4 4 4 4 4 4 4 4 4 4 3 2 3 2 2 1 2 2 2
2 3 1 1 1 1 2 4 4 4 5 4 5 6 6 6 6 5 5 6 6 5 5 5 4 4 4 5 5 4 4 4 4 4 4 3 2 2 2 2 1 2 2 2
3 3 3 2 2 3 3 3 4 4 5 4 5 6 6 6 6 6 5 5 5 5 5 5 5 4 4 4 4 4 4 4 4 3 3 3 3 2 2 2 2 2 2 2
3 3 3 3 3 4 4 4 4 5 4 4 5 6 6 6 6 6 6 5 5 4 5 5 5 4 5 4 4 4 4 4 4 4 3 3 3 3 3 2 2 2 2 2
4 2 2 4 4 4 4 5 5 5 5 5 5 6 6 5 5 5 6 5 5 5 5 5 5 5 4 4 4 3 4 4 3 3 3 3 3 4 6 5 6 5 5 4
3 3 3 5 4 4 4 5 5 5 5 5 5 5 5 5 5 5 5 5 5 5 5 5 5 5 5 4 4 3 3 3 3 3 3 3 3 3 4 5 6 6 6 5
3 2 4 3 4 4 4 5 5 4 4 4 4 5 5 5 5 6 5 5 5 5 4 4 5 5 5 4 4 4 4 4 4 3 3 3 3 3 3 4 4 4 5 6
3 3 4 4 4 4 4 4 4 4 5 5 4 5 5 5 6 6 6 5 5 5 4 5 5 5 5 4 4 4 3 3 3 3 3 3 3 3 3 3 3 4 4 5
4 3 4 4 5 5 4 4 5 5 5 5 5 5 5 5 5 5 5 4 4 5 5 5 5 5 5 4 4 3 3 5 5 3 3 3 3 3 3 3 3 3 4 4
2 3 3 4 5 5 5 5 5 5 5 5 5 5 5 5 5 5 5 5 4 4 5 4 5 5 4 4 3 3 3 4 6 4 3 3 3 3 3 3 3 3 3 4
4 4 4 4 4 5 5 5 5 5 5 5 5 5 4 4 5 6 5 5 4 5 4 4 4 4 4 4 3 2 3 3 3 3 3 3 3 3 3 3 3 4 4 5
3 4 4 4 4 4 4 4 4 4 4 4 4 4 4 4 4 5 4 4 5 5 5 4 6 4 4 5 5 2 2 3 3 3 3 4 4 3 3 3 4 4 4 4
3 3 3 4 3 3 4 4 4 4 4 4 4 4 4 4 4 4 4 4 4 4 4 5 4 3 4 4 5 2 2 3 3 3 3 3 3 3 3 4 4 4 4 4
3 3 3 3 4 4 4 4 4 4 4 4 4 4 4 4 4 3 3 4 5 4 4 6 4 3 3 4 5 3 2 3 3 3 3 3 3 4 4 4 4 4 4 4
3 3 4 3 3 4 4 3 3 4 4 4 4 4 4 4 4 4 3 4 4 7 5 3 3 5 5 5 3 2 3 3 3 3 3 3 3 3 4 4 4 4 4 4
3 3 3 3 4 4 4 4 3 4 4 4 4 4 4 4 4 4 5 3 3 6 5 3 6 8 8 4 2 3 3 3 3 3 3 3 3 3 4 4 4 4 4 4
3 3 3 3 3 3 4 4 4 3 4 4 4 4 4 4 4 3 3 6 7 7 4 6 8 8 7 3 2 3 3 3 3 3 3 3 3 3 4 4 4 5 5 5
3 3 3 3 3 3 4 4 4 4 4 3 4 4 3 2 3 4 4 4 7 7 4 6 8 8 5 3 3 3 3 3 3 3 3 3 3 4 4 4 4 4 4 5
3 3 3 3 3 3 3 3 3 3 3 4 4 3 3 2 3 3 3 4 5 6 4 3 4 5 3 3 3 3 3 4 5 4 4 4 4 4 4 4 5 5 5 5
3 2 2 3 3 2 2 2 3 3 3 3 4 4 3 3 3 3 4 3 4 4 4 3 3 3 3 3 3 3 3 3 4 4 4 4 4 4 5 5 5 5 6 6
Wind_Direction
276 289 312 337 335 354 358 298 256 294 299 325 345 350 355 359 0 3 7 15 14 7 2 4 3 360 357 354 351 348 1 2 347 346 349 346 338 319 312 306 298 274 256 249
283 258 255 325 337 327 309 298 285 305 306 342 356 360 359 354 354 358 4 6 2 359 356 356 352 347 346 346 340 341 348 345 340 341 340 333 322 313 303 294 286 269 253 248
295 308 319 312 311 299 297 328 305 294 301 341 349 350 354 354 359 1 3 359 354 350 347 344 341 339 335 332 334 339 341 334 329 330 326 325 315 303 293 287 279 274 269 253
295 330 287 248 74 34 270 340 333 309 331 351 347 336 358 7 7 5 357 350 346 344 340 336 333 333 330 332 336 338 334 329 329 332 328 325 320 304 298 289 272 270 263 255
303 292 259 162 37 23 326 309 347 333 337 345 345 333 353 24 16 359 347 340 338 334 330 331 333 332 335 335 339 343 336 330 328 325 321 318 310 307 303 297 291 283 274 268
284 280 273 307 350 334 292 276 2 358 333 337 348 337 321 348 353 348 344 339 336 334 337 338 335 337 343 340 345 338 330 325 325 321 309 305 303 305 304 299 293 297 300 291
271 251 266 336 325 7 114 274 330 337 330 334 322 296 305 325 335 340 339 337 337 337 339 336 335 345 350 345 334 326 329 330 326 324 314 303 306 304 305 304 306 305 305 306
268 244 259 13 56 108 259 310 326 331 333 327 314 316 324 328 329 335 339 339 339 338 333 335 344 350 345 334 326 330 333 333 331 329 320 319 318 315 312 300 303 305 304 310
216 225 275 122 172 273 319 315 318 321 318 318 313 314 320 322 324 327 333 333 334 334 332 335 345 348 336 327 332 336 338 336 332 329 328 327 323 318 315 310 298 295 294 295
266 262 280 281 300 322 324 308 308 311 311 314 308 310 315 320 324 328 329 331 334 335 334 330 335 339 331 330 337 339 336 331 328 333 335 342 339 333 326 320 311 303 299 301
254 282 297 274 306 313 312 309 309 311 312 311 308 311 314 317 320 325 329 331 329 327 326 324 328 332 333 334 337 335 329 329 332 333 334 345 346 338 329 325 300 295 292 283
239 255 262 283 308 320 315 311 310 310 313 318 315 310 315 315 315 317 321 324 326 327 326 326 328 327 330 332 330 329 330 333 334 338 338 338 342 348 352 340 340 334 323 305
246 299 288 286 307 324 316 315 314 307 303 310 315 313 313 311 313 314 316 323 322 319 319 322 329 332 332 330 329 328 324 324 326 333 336 338 341 345 343 348 354 353 347 338
263 288 289 294 302 314 312 310 310 310 309 311 312 315 314 312 314 317 316 316 317 318 319 322 326 327 327 325 327 328 328 327 329 328 333 336 338 335 332 334 338 343 346 348
279 269 262 285 302 307 314 319 318 312 315 318 320 320 319 316 313 313 314 316 320 321 323 324 325 325 329 330 332 329 326 328 328 329 332 333 333 331 330 333 332 334 341 347
288 282 273 283 292 304 312 312 307 304 311 312 315 316 315 311 309 313 319 319 319 316 317 318 319 324 329 328 326 326 326 331 333 330 332 334 333 332 332 333 334 337 340 340
283 287 292 302 302 304 300 293 291 295 303 305 306 309 314 316 316 318 321 323 315 307 310 312 315 323 328 326 321 319 321 326 331 330 329 325 323 325 325 327 328 329 327 329
246 258 266 272 282 294 299 299 297 298 298 297 303 307 309 308 305 307 313 321 324 320 314 312 317 326 327 324 323 320 319 318 322 320 321 321 320 321 323 324 325 324 325 329
271 275 283 285 282 282 289 295 299 300 301 306 307 300 293 293 297 305 313 321 321 317 320 322 328 333 320 320 327 317 317 317 318 318 322 321 326 330 330 327 325 325 325 328
285 288 291 294 297 293 295 299 304 305 307 310 308 307 307 305 306 310 310 301 294 296 304 315 321 316 313 315 327 315 308 308 311 316 320 319 320 324 325 324 323 322 323 324
287 293 295 297 301 303 299 302 304 303 308 312 307 302 299 304 307 305 304 303 306 312 320 320 324 313 311 316 322 318 310 311 309 307 309 311 316 319 320 321 320 322 323 324
283 287 288 294 299 301 302 302 299 298 305 309 307 306 307 307 305 300 283 281 301 318 328 317 315 318 324 324 327 325 320 315 311 308 306 307 309 311 314 316 317 319 321 322
275 276 282 285 284 289 300 301 296 295 294 295 297 297 295 296 300 301 305 303 310 317 324 316 318 323 328 338 336 323 316 313 310 308 307 307 306 306 308 311 313 314 315 316
272 280 284 291 297 298 298 298 296 293 288 287 288 286 287 298 301 290 293 313 321 320 321 320 327 330 334 346 331 320 316 315 312 310 309 307 308 309 309 310 311 312 314 315
276 277 281 289 288 284 287 301 307 304 303 301 300 297 289 278 284 301 311 317 319 324 326 325 328 332 338 330 323 318 315 309 310 313 310 310 309 309 309 308 308 307 309 307
263 266 267 266 271 285 297 302 303 307 312 313 314 313 311 307 302 306 310 312 314 320 324 321 324 325 329 323 317 317 315 317 318 319 314 310 307 306 306 308 306 303 302 299
260 266 277 285 281 281 289 294 295 300 304 303 305 308 312 315 316 318 317 318 319 319 318 319 321 319 318 317 316 315 314 313 312 311 310 306 303 300 299 299 297 296 296 295
Height
1511 1508 1508 1509 1508 1507 1508 1509 1511 1509 1508 1507 1506 1505 1504 1502 1500 1498 1496 1495 1494 1494 1493 1491 1491 1490 1490 1490 1490 1490 1490 1490 1490 1490 1490 1491 1492 1492 1493 1494 1494 1495 1496 1497
1510 1505 1506 1508 1509 1508 1509 1509 1509 1508 1509 1507 1506 1505 1504 1502 1501 1499 1497 1496 1495 1493 1492 1491 1490 1490 1489 1488 1488 1488 1488 1488 1488 1487 1488 1488 1489 1489 1490 1490 1491 1491 1492 1493
1511 1505 1505 1512 1513 1512 1512 1512 1512 1512 1511 1507 1506 1505 1504 1503 1501 1500 1498 1497 1495 1493 1492 1491 1490 1488 1487 1486 1486 1486 1485 1485 1485 1485 1485 1485 1485 1486 1486 1486 1487 1487 1488 1489
1512 1511 1519 1518 1512 1512 1512 1513 1512 1511 1510 1509 1508 1506 1505 1504 1502 1500 1498 1496 1495 1493 1491 1490 1488 1487 1486 1485 1484 1483 1483 1482 1482 1482 1482 1481 1482 1482 1482 1482 1483 1483 1484 1485
1517 1517 1513 1514 1513 1514 1515 1514 1512 1511 1509 1508 1507 1504 1504 1503 1502 1500 1498 1496 1494 1492 1490 1488 1487 1485 1483 1482 1481 1481 1480 1480 1479 1479 1478 1478 1478 1478 1478 1479 1479 1479 1480 1480
1517 1518 1519 1518 1515 1513 1515 1515 1512 1511 1510 1508 1507 1507 1505 1503 1501 1499 1497 1495 1493 1491 1488 1486 1485 1483 1481 1480 1479 1478 1478 1478 1477 1477 1476 1475 1475 1475 1475 1475 1475 1475 1475 1476
1520 1520 1519 1518 1514 1513 1520 1519 1514 1511 1510 1509 1508 1508 1506 1502 1500 1498 1496 1493 1491 1489 1487 1485 1483 1481 1479 1477 1477 1476 1476 1475 1475 1474 1473 1472 1472 1471 1471 1471 1471 1471 1471 1471
1521 1521 1523 1517 1515 1518 1518 1514 1512 1511 1509 1508 1507 1505 1503 1501 1498 1496 1494 1491 1489 1487 1485 1483 1482 1480 1478 1476 1475 1475 1474 1473 1472 1471 1470 1469 1469 1468 1468 1467 1467 1467 1467 1467
1523 1523 1518 1516 1515 1515 1514 1512 1511 1509 1508 1506 1504 1502 1501 1499 1497 1494 1492 1490 1488 1485 1483 1482 1480 1479 1477 1475 1474 1473 1472 1470 1469 1468 1467 1467 1466 1465 1464 1464 1464 1464 1464 1463
1519 1516 1515 1515 1514 1513 1512 1510 1509 1508 1506 1504 1502 1500 1498 1496 1494 1492 1490 1488 1485 1483 1481 1480 1478 1477 1475 1474 1472 1471 1469 1468 1467 1466 1465 1464 1463 1463 1462 1461 1461 1461 1460 1460
1518 1515 1513 1512 1512 1511 1509 1508 1506 1505 1503 1502 1500 1498 1496 1494 1492 1490 1488 1485 1483 1481 1479 1478 1476 1475 1473 1472 1470 1468 1467 1466 1465 1464 1463 1462 1461 1461 1460 1459 1459 1459 1458 1457
1516 1513 1513 1511 1509 1509 1507 1505 1504 1502 1501 1499 1498 1495 1493 1491 1490 1488 1486 1484 1481 1479 1477 1476 1474 1472 1471 1470 1468 1467 1465 1464 1463 1462 1461 1460 1459 1458 1457 1457 1456 1456 1455 1455
1512 1511 1510 1509 1508 1507 1505 1503 1502 1500 1499 1497 1495 1493 1491 1489 1487 1485 1483 1481 1479 1477 1475 1474 1472 1470 1469 1468 1467 1466 1464 1463 1461 1460 1459 1458 1457 1456 1454 1454 1453 1453 1452 1452
1509 1509 1507 1506 1505 1504 1503 1501 1499 1498 1496 1494 1492 1490 1489 1487 1484 1482 1481 1479 1477 1476 1474 1472 1470 1469 1468 1466 1465 1464 1462 1461 1460 1459 1458 1456 1455 1455 1454 1452 1451 1450 1450 1449
1507 1506 1505 1504 1502 1501 1500 1498 1496 1495 1493 1491 1490 1488 1486 1484 1482 1480 1478 1477 1475 1473 1472 1470 1468 1467 1466 1464 1463 1462 1461 1460 1459 1458 1457 1456 1455 1454 1453 1452 1450 1449 1448 1447
1504 1503 1502 1501 1500 1498 1497 1495 1494 1492 1490 1488 1487 1485 1483 1481 1480 1478 1476 1475 1473 1471 1470 1468 1466 1465 1464 1463 1462 1461 1460 1459 1458 1456 1455 1454 1453 1452 1451 1450 1449 1448 1447 1446
1502 1500 1499 1498 1497 1496 1495 1493 1491 1489 1488 1486 1484 1482 1481 1479 1477 1475 1474 1473 1471 1470 1468 1466 1465 1464 1463 1461 1460 1459 1458 1457 1456 1455 1454 1453 1452 1451 1450 1449 1448 1447 1446 1445
1500 1499 1498 1496 1495 1493 1492 1490 1489 1487 1485 1483 1482 1480 1478 1476 1475 1473 1472 1470 1469 1468 1466 1465 1464 1462 1461 1460 1459 1457 1456 1455 1455 1454 1453 1452 1451 1450 1449 1448 1447 1446 1444 1443
1497 1496 1495 1493 1492 1491 1489 1488 1486 1485 1483 1481 1479 1477 1476 1474 1473 1471 1470 1468 1467 1465 1464 1463 1462 1461 1459 1458 1457 1456 1455 1454 1453 1452 1452 1451 1450 1449 1448 1446 1445 1444 1443 1441
1495 1493 1492 1491 1490 1488 1487 1485 1484 1482 1480 1479 1477 1475 1473 1472 1470 1469 1468 1466 1465 1464 1463 1462 1460 1459 1458 1457 1456 1454 1453 1452 1452 1451 1450 1449 1448 1447 1446 1445 1444 1442 1441 1440
1492 1491 1489 1488 1487 1486 1484 1483 1481 1480 1478 1476 1474 1472 1471 1470 1468 1467 1465 1464 1463 1462 1461 1460 1458 1457 1456 1455 1454 1453 1451 1451 1450 1449 1448 1447 1446 1445 1444 1443 1442 1440 1439 1438
1490 1488 1487 1486 1485 1483 1482 1480 1479 1477 1475 1474 1472 1470 1469 1467 1466 1465 1464 1462 1461 1460 1459 1458 1456 1455 1454 1453 1452 1450 1450 1449 1448 1447 1446 1445 1444 1443 1442 1441 1440 1438 1437 1436
1487 1486 1485 1483 1482 1481 1479 1478 1476 1475 1473 1471 1470 1468 1467 1465 1464 1462 1461 1460 1459 1458 1457 1456 1455 1454 1452 1451 1450 1448 1448 1447 1446 1445 1444 1443 1442 1441 1440 1439 1437 1436 1435 1434
1484 1483 1482 1481 1480 1478 1477 1475 1474 1472 1471 1469 1468 1466 1465 1463 1462 1461 1459 1458 1457 1456 1455 1454 1452 1451 1450 1449 1448 1447 1446 1445 1444 1443 1442 1441 1440 1439 1438 1436 1435 1434 1433 1431
1482 1481 1480 1478 1477 1476 1474 1473 1472 1470 1468 1467 1465 1464 1463 1461 1460 1458 1457 1456 1455 1453 1452 1451 1450 1449 1448 1447 1446 1445 1444 1443 1442 1441 1439 1438 1437 1436 1435 1434 1433 1431 1430 1429
1479 1478 1477 1476 1475 1473 1472 1470 1469 1468 1466 1464 1463 1462 1461 1459 1458 1456 1455 1454 1453 1451 1450 1449 1448 1447 1446 1445 1444 1442 1441 1440 1439 1438 1437 1436 1435 1434 1433 1431 1430 1429 1427 1426
1476 1475 1474 1473 1472 1471 1470 1468 1467 1465 1464 1462 1461 1460 1458 1457 1455 1454 1453 1452 1450 1449 1448 1447 1446 1444 1443 1442 1441 1440 1439 1438 1437 1436 1435 1434 1432 1431 1430 1428 1427 1426 1424 1423